WIF8TD ENBR-ENZV

Flight info

Callsign WIF8TD
Flight time N/A
Altitude 17000
Route ADIDO DCT BR821 DCT GISUK DCT ELLEB DCT SOGTI DCT ELBUV DCT PIDUG DCT GURDU
Aircraft DH8D/M-SDE2E3FGRY/H

Departure

Time 2026-05-05 21:11
Airport Bergen Airport, Flesland (ENBR)

Arrival

Time N/A
Airport Stavanger Airport, Sola (ENZV)
Time Latitude Longitude Altitude Speed Heading
2026-05-05 20:42 60.28737 5.22896 173 ft 0 kts 80°
2026-05-05 21:07 60.28735 5.22903 172 ft 1 kts 128°
2026-05-05 21:07 60.28728 5.22891 172 ft 0 kts 255°
2026-05-05 21:07 60.28725 5.22853 174 ft 4 kts 264°
2026-05-05 21:08 60.28719 5.22724 172 ft 12 kts 265°
2026-05-05 21:08 60.28706 5.22529 170 ft 17 kts 256°
2026-05-05 21:08 60.28625 5.22375 168 ft 20 kts 169°
2026-05-05 21:08 60.28484 5.22422 166 ft 19 kts 173°
2026-05-05 21:09 60.28354 5.22465 164 ft 17 kts 170°
2026-05-05 21:09 60.28286 5.22433 163 ft 14 kts 241°
2026-05-05 21:09 60.28277 5.22364 162 ft 4 kts 261°
2026-05-05 21:09 60.28274 5.22279 160 ft 9 kts 270°
2026-05-05 21:10 60.28312 5.22155 159 ft 11 kts 343°
2026-05-05 21:10 60.28460 5.22111 161 ft 32 kts 352°
2026-05-05 21:10 60.28779 5.22007 165 ft 81 kts 348°
2026-05-05 21:10 60.29314 5.21808 165 ft 130 kts 351°
2026-05-05 21:11 60.30225 5.21740 495 ft 145 kts 358°
2026-05-05 21:11 60.31240 5.21622 1009 ft 155 kts 353°
2026-05-05 21:11 60.32267 5.21275 1788 ft 149 kts 348°
2026-05-05 21:11 60.33265 5.20869 2408 ft 148 kts 349°
2026-05-05 21:12 60.34306 5.20463 2817 ft 156 kts 348°
2026-05-05 21:12 60.35352 5.20067 3345 ft 154 kts 349°
2026-05-05 21:12 60.36394 5.19682 3859 ft 154 kts 349°
2026-05-05 21:12 60.37423 5.19310 4360 ft 154 kts 349°
2026-05-05 21:13 60.38419 5.18957 4827 ft 154 kts 349°
2026-05-05 21:13 60.39471 5.18587 5298 ft 156 kts 348°
2026-05-05 21:13 60.40587 5.18196 5467 ft 180 kts 349°
2026-05-05 21:13 60.41892 5.17733 5629 ft 199 kts 347°
2026-05-05 21:14 60.43111 5.16451 6039 ft 202 kts 310°
2026-05-05 21:14 60.43513 5.13877 6470 ft 208 kts 267°
2026-05-05 21:14 60.42914 5.11372 6876 ft 218 kts 226°
2026-05-05 21:14 60.41511 5.09906 7328 ft 226 kts 202°
2026-05-05 21:15 60.40028 5.08927 7857 ft 226 kts 201°
2026-05-05 21:15 60.38568 5.07977 8319 ft 228 kts 201°
2026-05-05 21:15 60.37084 5.07019 8796 ft 230 kts 201°
2026-05-05 21:15 60.35579 5.06048 9283 ft 232 kts 201°
2026-05-05 21:16 60.34056 5.05063 9773 ft 234 kts 202°
2026-05-05 21:16 60.32538 5.04083 10272 ft 235 kts 202°
2026-05-05 21:16 60.31007 5.03096 10747 ft 237 kts 202°
2026-05-05 21:16 60.29466 5.02101 11220 ft 238 kts 202°
2026-05-05 21:17 60.27879 5.01178 11706 ft 241 kts 193°
2026-05-05 21:17 60.26374 5.01292 12101 ft 249 kts 173°
2026-05-05 21:17 60.25019 5.01837 12491 ft 250 kts 172°
2026-05-05 21:17 60.23314 5.02535 12968 ft 252 kts 172°
2026-05-05 21:18 60.21619 5.03226 13452 ft 253 kts 173°
2026-05-05 21:18 60.19937 5.03909 13939 ft 255 kts 173°
2026-05-05 21:18 60.18233 5.04594 14409 ft 255 kts 173°
2026-05-05 21:18 60.16508 5.05278 14834 ft 258 kts 174°
2026-05-05 21:19 60.14761 5.05775 15264 ft 258 kts 179°
2026-05-05 21:19 60.13006 5.06151 15696 ft 257 kts 180°
2026-05-05 21:19 60.11284 5.06513 16054 ft 260 kts 181°
2026-05-05 21:19 60.09522 5.06888 16445 ft 261 kts 181°